Wind_Speed
15 15 15 14 14 14 13 13 12 12 12 12 11 12 11 11 10 10 9 9 9 9 9 9 9 8 8 7 6 6 5 5 5 4 4 4 3 3 2 2 2 2 2
16 16 16 16 16 15 14 14 14 13 13 13 12 12 12 12 11 11 10 10 10 9 9 10 9 9 8 7 7 7 6 6 6 6 5 5 4 4 3 3 3 3 3
17 17 17 17 17 16 16 15 15 15 14 14 13 13 13 12 12 12 12 12 11 11 11 11 10 9 9 9 8 8 8 7 7 7 6 6 5 5 5 4 4 4 4
18 18 18 18 18 17 17 17 16 16 16 15 14 14 14 13 13 13 13 13 12 13 12 11 11 11 10 10 9 9 9 9 9 8 8 7 7 6 6 6 6 5 5
20 20 19 19 19 18 18 18 18 18 17 17 17 15 15 15 15 15 15 15 14 14 13 13 12 12 11 11 10 10 10 10 9 9 9 9 9 8 8 8 8 7 7
20 21 20 20 20 20 19 19 19 19 18 18 18 17 16 16 15 16 16 16 16 16 15 14 14 14 13 13 12 12 11 11 10 10 10 10 10 10 10 9 9 9 9
21 22 22 22 22 22 21 21 21 20 20 19 19 18 19 18 17 17 17 17 17 17 17 16 15 15 15 15 15 14 13 13 12 11 11 11 11 11 11 11 11 11 11
23 23 24 23 23 23 23 23 23 22 22 21 21 21 20 20 19 19 18 18 18 18 18 18 17 17 17 17 16 15 15 14 13 13 13 12 12 12 12 12 12 12 12
25 25 25 25 25 25 24 24 24 24 24 24 23 23 22 22 21 21 20 20 20 20 19 19 19 18 18 18 18 17 17 16 16 15 15 14 14 14 14 13 13 14 14
26 26 26 26 26 26 26 26 26 26 25 25 25 24 24 23 23 23 22 21 22 22 21 21 21 21 20 20 19 19 18 18 17 17 17 16 16 16 15 15 15 15 15
27 27 26 26 26 27 27 27 27 26 26 26 26 26 25 25 25 25 24 24 23 23 23 23 23 23 22 22 21 21 20 20 20 19 19 18 18 18 17 17 16 16 16
29 28 27 27 28 28 28 29 28 28 28 27 28 28 28 27 26 26 26 26 25 25 25 25 25 25 24 24 24 23 23 22 22 21 21 21 20 20 19 19 18 18 18
31 30 30 30 30 29 29 29 29 29 29 29 29 29 29 29 28 27 28 28 28 28 27 26 26 26 26 26 26 26 25 25 24 24 24 23 22 22 22 21 20 20 20
33 33 32 32 31 31 31 31 31 31 31 31 31 30 30 30 30 29 29 30 30 30 30 29 29 29 29 28 28 28 28 27 27 27 26 26 25 25 24 23 23 22 22
35 35 34 34 33 33 33 33 33 32 32 33 32 32 32 32 31 32 32 32 32 32 32 32 31 31 31 31 31 30 30 30 30 29 29 28 28 27 27 26 26 25 24
36 36 35 35 34 34 34 34 34 34 34 34 34 34 34 34 34 33 33 33 34 34 34 33 33 33 33 33 34 34 33 33 32 32 31 31 31 30 29 29 28 28 27
37 37 36 36 36 35 35 35 35 35 35 35 35 36 35 36 36 36 35 35 35 36 36 35 35 34 35 35 35 35 35 35 34 34 34 33 33 32 32 32 31 31 30
38 38 37 37 37 37 37 37 37 37 37 37 37 37 38 37 37 37 37 37 37 37 37 37 37 38 38 37 37 37 37 36 36 36 36 36 35 35 35 34 34 33 33
38 38 38 38 38 39 39 39 39 39 39 40 39 40 40 39 38 38 39 39 39 39 39 39 39 39 39 39 39 39 39 38 38 38 38 38 38 37 37 37 36 35 35
39 40 40 40 40 40 40 40 40 40 40 40 40 39 40 40 40 40 40 40 40 40 40 40 40 40 40 40 41 41 41 40 40 40 40 40 40 39 39 39 38 38 37
41 41 42 42 42 42 42 41 41 41 41 41 40 40 40 40 41 41 41 42 41 41 41 41 41 41 42 42 42 42 42 42 42 42 42 41 41 41 41 41 40 40 39
43 42 42 43 43 42 42 42 43 43 43 43 43 43 43 42 42 43 43 44 44 44 43 43 43 43 43 43 43 43 42 42 42 42 43 42 42 42 42 42 42 41 41
43 43 43 44 44 44 44 44 44 44 44 44 44 45 45 44 44 44 44 45 45 45 45 45 44 45 45 45 44 44 44 43 43 43 43 43 43 43 42 42 42 43 43
43 43 44 44 45 44 45 45 45 45 45 45 45 46 46 46 46 47 46 46 46 46 46 46 46 46 46 46 46 46 46 45 45 44 44 45 45 45 44 44 44 44 44
43 44 45 45 46 46 45 45 46 46 45 45 46 46 46 46 46 47 47 47 47 48 48 48 48 48 48 48 48 47 47 46 46 45 44 45 46 46 46 46 46 46 46
43 44 44 45 46 47 47 46 46 46 46 46 46 46 46 47 47 48 48 48 49 49 49 49 49 49 49 49 49 48 48 48 48 47 46 46 46 47 47 47 47 46 47
Wind_Direction
242 241 240 238 239 239 241 240 236 234 235 235 232 232 232 232 229 229 230 232 232 231 231 232 232 234 235 236 237 240 241 245 241 234 235 239 242 247 253 261 262 264 247
245 242 242 239 240 242 244 243 240 237 235 236 235 233 232 231 231 231 231 233 235 234 234 234 235 235 236 235 237 238 240 242 245 239 240 248 249 250 254 257 260 258 251
245 245 245 242 242 243 244 245 243 240 238 237 237 235 234 234 236 236 235 235 237 237 236 237 238 238 238 239 240 240 242 244 249 245 244 249 251 252 255 256 256 257 251
246 246 246 245 244 244 245 245 244 243 241 239 240 238 238 238 239 240 240 240 240 240 240 239 240 239 241 242 244 245 246 247 247 248 248 250 250 251 254 254 256 259 257
247 247 247 247 245 245 245 246 245 245 245 243 242 241 241 241 241 241 242 243 242 242 242 241 241 240 241 244 245 246 247 248 250 250 250 249 250 251 253 255 258 259 261
248 248 248 247 247 247 246 246 245 246 247 247 246 245 245 243 243 244 244 244 244 245 245 244 242 241 242 243 245 246 248 248 250 252 254 254 253 254 255 258 258 259 260
248 249 248 248 248 248 248 247 247 248 248 248 249 248 247 247 247 247 245 244 244 245 246 245 244 245 244 244 246 247 249 250 251 254 255 256 258 256 257 259 260 259 258
250 250 248 249 249 249 249 247 247 248 248 248 250 249 249 249 249 249 247 245 245 246 247 247 247 247 246 246 247 248 250 251 252 255 256 256 258 260 260 261 261 260 259
253 253 251 250 250 250 249 248 248 248 248 249 250 249 250 251 251 250 249 249 248 248 248 248 249 250 249 249 250 250 251 251 254 257 258 258 257 259 260 260 261 261 261
253 253 251 251 250 250 249 249 248 248 249 249 250 250 250 251 252 251 250 250 250 250 249 249 249 250 250 251 252 252 253 254 255 257 258 259 259 260 260 261 261 262 262
253 253 251 251 251 250 250 249 249 248 249 249 249 250 250 251 253 252 251 250 251 250 251 251 249 250 250 252 253 253 254 255 256 257 257 258 260 260 261 262 263 263 263
253 253 253 252 251 251 251 250 249 248 248 249 250 250 252 252 252 252 252 251 251 251 251 252 251 250 251 252 254 255 255 256 257 257 258 259 259 260 261 261 263 265 265
253 253 253 253 252 252 252 252 251 249 249 249 251 251 252 252 252 252 252 252 252 253 252 253 252 253 253 254 254 255 257 258 259 258 258 259 259 260 261 261 262 264 266
253 253 252 252 252 253 253 252 251 251 251 251 252 253 253 253 253 254 252 252 253 254 253 253 254 253 253 253 253 255 257 258 259 259 259 259 259 260 261 261 263 264 265
254 253 253 252 252 252 253 253 252 252 252 253 252 253 254 255 255 255 255 254 254 254 254 254 255 254 254 254 254 255 256 257 258 259 259 259 260 260 261 262 263 264 265
253 253 252 252 253 253 253 252 252 252 252 253 252 253 254 255 255 256 256 256 255 254 254 255 256 254 255 256 256 256 256 256 257 258 258 259 259 260 261 262 263 264 264
253 253 252 252 252 252 253 252 252 253 253 253 253 254 254 255 255 256 255 256 256 257 257 257 257 256 256 256 257 257 257 257 256 257 258 259 259 260 261 261 263 263 264
254 253 253 252 252 252 251 252 253 254 254 254 254 255 255 256 256 257 257 258 258 259 259 259 257 257 258 258 259 259 259 258 258 258 259 259 259 260 261 261 262 262 262
255 254 253 252 253 252 252 252 253 254 254 255 255 256 256 257 257 257 257 258 259 260 260 259 259 259 259 259 259 260 259 259 259 259 258 258 259 259 260 261 261 261 261
255 255 253 253 253 253 253 253 254 256 255 255 256 257 257 258 257 258 258 258 259 260 260 260 261 260 261 261 261 261 261 261 260 259 258 258 258 258 259 260 260 260 261
255 255 254 253 253 253 253 254 255 256 255 256 256 257 258 258 258 258 259 258 259 260 261 261 261 260 261 262 262 262 262 262 262 260 259 258 257 258 259 259 259 260 260
256 255 255 254 254 254 255 255 255 256 256 257 256 257 259 260 260 259 259 259 259 260 261 261 261 260 261 262 262 261 261 261 261 261 260 259 258 258 259 259 259 259 259
256 256 256 256 255 254 255 255 256 256 257 257 258 258 259 259 260 260 261 261 261 260 260 260 261 261 262 262 261 261 261 261 261 261 261 260 259 259 259 259 260 260 260
255 255 256 256 255 255 256 256 256 257 257 258 258 258 259 259 260 261 262 262 262 262 263 262 263 262 262 262 262 262 262 262 261 260 261 261 261 260 260 261 261 261 260
256 255 257 257 255 255 256 256 256 256 257 258 258 258 259 260 260 261 261 262 262 263 263 264 264 263 263 263 262 262 262 262 262 261 261 261 262 261 262 262 262 262 262
256 256 256 256 255 255 256 256 256 257 257 258 258 259 259 260 260 261 262 262 262 263 263 263 264 263 262 261 261 262 262 262 262 262 261 260 261 261 262 262 262 262 262
Height
5822 5823 5824 5825 5826 5827 5828 5829 5830 5831 5832 5833 5834 5835 5836 5837 5838 5839 5839 5840 5842 5843 5844 5845 5845 5846 5847 5847 5848 5849 5849 5850 5850 5850 5851 5851 5852 5852 5852 5853 5853 5853 5854
5819 5821 5822 5823 5824 5825 5826 5827 5828 5829 5830 5831 5832 5833 5834 5835 5836 5837 5838 5839 5840 5841 5842 5843 5844 5845 5846 5846 5847 5848 5848 5849 5849 5850 5850 5851 5851 5851 5852 5852 5852 5853 5853
5817 5818 5819 5820 5821 5822 5824 5825 5826 5827 5828 5829 5830 5831 5832 5833 5834 5835 5836 5837 5838 5839 5841 5842 5843 5843 5844 5845 5846 5846 5847 5848 5848 5848 5849 5850 5850 5851 5851 5851 5852 5852 5853
5814 5815 5816 5817 5819 5820 5821 5822 5823 5824 5825 5826 5827 5828 5830 5831 5832 5833 5834 5835 5836 5837 5838 5840 5841 5842 5842 5843 5844 5845 5846 5846 5847 5847 5848 5849 5849 5850 5850 5850 5851 5851 5852
5811 5812 5813 5814 5816 5817 5818 5819 5820 5821 5822 5823 5825 5826 5827 5828 5829 5830 5832 5833 5834 5835 5836 5837 5839 5840 5841 5841 5842 5843 5844 5845 5845 5846 5846 5847 5848 5848 5849 5849 5850 5850 5851
5807 5808 5810 5811 5812 5814 5815 5816 5817 5818 5819 5820 5821 5823 5824 5825 5826 5828 5829 5830 5831 5832 5834 5835 5836 5837 5838 5839 5840 5841 5842 5843 5844 5844 5845 5845 5846 5847 5847 5848 5848 5848 5849
5803 5804 5806 5807 5809 5810 5811 5813 5814 5815 5816 5817 5818 5819 5821 5822 5823 5825 5826 5827 5828 5829 5831 5832 5833 5834 5836 5836 5837 5838 5839 5840 5841 5842 5843 5843 5844 5845 5845 5846 5846 5846 5847
5799 5800 5802 5803 5804 5806 5807 5809 5810 5811 5813 5814 5815 5816 5817 5818 5820 5821 5822 5824 5825 5826 5828 5829 5830 5831 5832 5834 5834 5836 5837 5838 5839 5840 5841 5841 5842 5842 5843 5843 5844 5844 5844
5794 5796 5797 5798 5800 5801 5803 5804 5806 5807 5808 5810 5811 5812 5813 5814 5816 5817 5819 5820 5821 5823 5824 5826 5827 5828 5829 5830 5831 5833 5834 5835 5836 5837 5838 5838 5839 5840 5840 5841 5841 5842 5842
5789 5790 5792 5793 5795 5796 5798 5799 5801 5802 5804 5805 5806 5808 5809 5810 5812 5813 5814 5816 5817 5819 5820 5822 5823 5824 5825 5827 5828 5829 5830 5831 5833 5834 5834 5835 5836 5837 5837 5838 5838 5839 5839
5783 5785 5786 5788 5789 5791 5792 5794 5795 5797 5799 5800 5801 5803 5804 5806 5807 5809 5810 5811 5813 5814 5816 5817 5818 5820 5821 5823 5824 5825 5826 5828 5829 5830 5831 5831 5832 5833 5834 5834 5835 5835 5836
5777 5779 5781 5782 5784 5785 5786 5788 5790 5791 5793 5795 5796 5797 5799 5800 5802 5803 5805 5807 5808 5809 5811 5812 5813 5815 5816 5818 5819 5821 5822 5823 5824 5825 5826 5827 5828 5829 5830 5830 5831 5832 5832
5770 5772 5774 5776 5777 5779 5780 5782 5783 5785 5787 5788 5790 5792 5793 5794 5796 5798 5799 5801 5802 5804 5805 5807 5808 5810 5811 5813 5814 5816 5817 5818 5819 5820 5821 5822 5823 5824 5825 5826 5827 5827 5828
5763 5765 5767 5769 5771 5772 5774 5775 5777 5779 5780 5782 5783 5785 5787 5788 5790 5791 5793 5795 5796 5798 5800 5801 5803 5804 5805 5807 5808 5810 5811 5812 5814 5815 5816 5817 5818 5819 5820 5821 5822 5822 5823
5755 5757 5759 5762 5763 5765 5767 5768 5770 5772 5773 5775 5777 5778 5780 5782 5783 5785 5786 5788 5790 5791 5793 5794 5796 5797 5799 5800 5802 5803 5804 5806 5807 5808 5810 5811 5812 5813 5814 5815 5816 5817 5818
5747 5749 5751 5754 5755 5757 5759 5761 5763 5764 5766 5767 5769 5771 5773 5774 5776 5778 5779 5781 5782 5784 5785 5787 5788 5790 5791 5793 5794 5796 5797 5798 5800 5801 5803 5804 5805 5806 5807 5809 5810 5811 5812
5738 5741 5743 5745 5747 5749 5751 5753 5755 5756 5757 5759 5761 5763 5765 5766 5768 5770 5771 5773 5774 5776 5777 5779 5780 5782 5783 5784 5786 5787 5789 5790 5792 5793 5795 5796 5798 5799 5800 5801 5803 5804 5805
5730 5732 5734 5737 5739 5741 5743 5744 5746 5747 5749 5751 5752 5754 5756 5758 5760 5761 5763 5764 5765 5767 5768 5770 5771 5773 5774 5776 5777 5778 5779 5781 5783 5784 5786 5787 5789 5790 5792 5793 5795 5796 5797
5721 5723 5725 5727 5730 5732 5734 5735 5737 5739 5740 5742 5744 5746 5747 5749 5751 5752 5754 5755 5756 5758 5759 5761 5762 5763 5765 5766 5767 5769 5770 5772 5773 5774 5776 5778 5779 5781 5783 5784 5786 5788 5789
5712 5714 5716 5718 5720 5722 5724 5726 5728 5729 5731 5733 5735 5736 5738 5739 5741 5742 5744 5745 5747 5748 5749 5751 5752 5753 5755 5756 5757 5759 5760 5761 5762 5764 5766 5767 5769 5771 5773 5775 5777 5778 5780
5702 5704 5706 5708 5710 5712 5714 5716 5718 5720 5721 5723 5725 5726 5728 5729 5731 5732 5734 5735 5737 5738 5739 5741 5742 5743 5745 5746 5747 5748 5749 5751 5752 5753 5755 5757 5759 5760 5762 5764 5766 5768 5770
5692 5694 5696 5698 5700 5702 5704 5706 5708 5710 5711 5713 5715 5716 5717 5719 5721 5722 5723 5724 5726 5727 5729 5730 5731 5732 5734 5735 5736 5737 5738 5741 5741 5743 5744 5746 5748 5749 5751 5753 5756 5758 5760
5681 5684 5685 5687 5689 5691 5693 5695 5697 5699 5700 5702 5704 5705 5706 5708 5709 5711 5712 5713 5714 5716 5717 5719 5720 5721 5722 5723 5724 5725 5727 5729 5731 5732 5733 5735 5736 5738 5740 5742 5744 5747 5749
5671 5672 5674 5676 5678 5680 5682 5684 5685 5687 5690 5691 5693 5694 5695 5696 5698 5699 5700 5701 5702 5704 5705 5706 5707 5709 5710 5711 5712 5713 5715 5717 5719 5721 5722 5723 5725 5727 5729 5731 5733 5735 5737
5659 5661 5662 5664 5666 5668 5670 5672 5674 5676 5678 5680 5681 5682 5683 5684 5685 5686 5687 5688 5690 5691 5693 5694 5695 5696 5697 5699 5700 5701 5703 5705 5706 5709 5711 5712 5713 5715 5717 5719 5721 5723 5725
5648 5649 5651 5652 5654 5656 5658 5659 5662 5664 5665 5667 5668 5670 5671 5672 5673 5674 5675 5676 5677 5678 5679 5680 5681 5683 5684 5686 5687 5689 5691 5692 5694 5696 5698 5700 5702 5704 5706 5707 5709 5711 5713